Weather History for KHEZ - February, 2013

Change the Weather History Date:

Friday, February 8, 2013

  Actual Average (KTVR) Record (KTVR)
Temperature  
Mean Temperature 54 °F 48 °F  
Max Temperature 59 °F 58 °F 81 °F (1999)
Min Temperature 46 °F 38 °F 21 °F (1988)
Degree Days  
Heating Degree Days 12 17  
Month to date heating degree days 141  
Since 1 July heating degree days 1685  
Cooling Degree Days 0 0  
Month to date cooling degree days 0  
Year to date cooling degree days 3  
Growing Degree Days 4 (Base 50)    
Moisture  
Dew Point 48 °F    
Average Humidity 79    
Maximum Humidity 94    
Minimum Humidity 67    
Precipitation  
Precipitation 0.00 in 0.19 in 1.38 in (1948)
Month to date precipitation 1.39  
Year to date precipitation 6.46  
Sea Level Pressure  
Sea Level Pressure 30.10 in    
Wind  
Wind Speed 6 mph (North)    
Max Wind Speed 17 mph    
Max Gust Speed 22 mph    
Visibility 10 miles    
Events      
T = Trace of Precipitation, MM = Missing Value Source: NWS Daily Summary

Daily Weather History Graph

Daily Weather History Graph

Search for Another Location

Airport or City:

Trip Planner

Search our weather history database for the weather conditions in past years. The results will help you decide how hot, cold, wet, or windy it might be!

Date:

Astronomy

Feb. 08, 2013 Rise Set
Actual Time 6:52 AM CST 5:46 PM CST
Civil Twilight 6:27 AM CST 6:11 PM CST
Nautical Twilight 5:58 AM CST 6:40 PM CST
Astronomical Twilight 5:30 AM CST 7:08 PM CST
Moon 5:18 AM CST (2/8) 4:21 PM CST (2/8)
Length of Visible Light 11h 43m
Length of Day
10h 53m
Waning Crescent, 3% of the Moon is Illuminated
Feb 8
Waning Crescent
Feb 10
New
Feb 17
First Quarter
Feb 25
Full
Mar 4
Last Quarter

Hourly Weather History & Observations

Time (CST) Temp. Windchill Dew Point Humidity Pressure Visibility Wind Dir Wind Speed Gust Speed Precip Events Conditions
12:15 AM 57.2 °F - 53.6 °F 88% 29.97 in 10.0 mi WSW 4.6 mph - N/A   Overcast
12:55 AM 59.0 °F - 55.4 °F 88% 29.97 in 10.0 mi SW 3.5 mph - N/A   Overcast
1:15 AM 57.2 °F - 53.6 °F 88% 29.96 in 10.0 mi SSW 4.6 mph - N/A   Mostly Cloudy
1:35 AM 57.2 °F - 53.6 °F 88% 29.96 in 10.0 mi Calm Calm - N/A   Clear
1:55 AM 55.4 °F - 51.8 °F 88% 29.96 in 10.0 mi SSW 3.5 mph - N/A   Partly Cloudy
2:15 AM 55.4 °F - 51.8 °F 88% 29.96 in 10.0 mi Calm Calm - N/A   Scattered Clouds
2:35 AM 53.6 °F - 51.8 °F 94% 29.96 in 9.0 mi Calm Calm - N/A   Clear
2:55 AM 53.6 °F - 51.8 °F 94% 29.96 in 7.0 mi Calm Calm - N/A   Partly Cloudy
3:35 AM 53.6 °F - 51.8 °F 94% 29.96 in 8.0 mi Calm Calm - N/A   Clear
3:55 AM 53.6 °F - 51.8 °F 94% 29.97 in 10.0 mi Calm Calm - N/A   Mostly Cloudy
4:15 AM 53.6 °F - 51.8 °F 94% 29.97 in 10.0 mi Calm Calm - N/A   Scattered Clouds
4:55 AM 55.4 °F - 53.6 °F 94% 29.98 in 10.0 mi Calm Calm - N/A   Overcast
5:15 AM 55.4 °F - 53.6 °F 94% 29.98 in 10.0 mi WSW 3.5 mph - N/A   Mostly Cloudy
5:35 AM 55.4 °F - 51.8 °F 88% 29.99 in 10.0 mi Calm Calm - N/A   Mostly Cloudy
5:55 AM 55.4 °F - 53.6 °F 94% 30.00 in 10.0 mi WSW 4.6 mph - N/A   Mostly Cloudy
6:15 AM 57.2 °F - 55.4 °F 94% 30.00 in 10.0 mi SW 5.8 mph - N/A   Overcast
6:35 AM 57.2 °F - 55.4 °F 94% 30.01 in 10.0 mi WSW 5.8 mph - N/A   Overcast
6:55 AM 57.2 °F - 55.4 °F 94% 30.02 in 10.0 mi West 8.1 mph - N/A   Overcast
7:15 AM 59.0 °F - 55.4 °F 88% 30.03 in 9.0 mi WNW 8.1 mph - N/A   Overcast
7:35 AM 59.0 °F - 55.4 °F 88% 30.04 in 8.0 mi WNW 6.9 mph - N/A   Overcast
7:55 AM 59.0 °F - 55.4 °F 88% 30.05 in 9.0 mi NW 6.9 mph - N/A   Overcast
8:15 AM 59.0 °F - 55.4 °F 88% 30.06 in 8.0 mi NW 6.9 mph - N/A   Overcast
8:35 AM 59.0 °F - 55.4 °F 88% 30.07 in 8.0 mi NNW 11.5 mph - N/A   Overcast
8:55 AM 59.0 °F - 55.4 °F 88% 30.08 in 10.0 mi NNW 8.1 mph - N/A   Overcast
9:15 AM 57.2 °F - 53.6 °F 88% 30.09 in 10.0 mi North 13.8 mph - N/A   Overcast
9:35 AM 57.2 °F - 53.6 °F 88% 30.10 in 10.0 mi North 12.7 mph - N/A   Overcast
9:55 AM 57.2 °F - 53.6 °F 88% 30.11 in 10.0 mi North 11.5 mph 19.6 mph N/A   Overcast
10:15 AM 57.2 °F - 51.8 °F 82% 30.12 in 10.0 mi North 13.8 mph 21.9 mph N/A   Overcast
10:35 AM 57.2 °F - 51.8 °F 82% 30.13 in 10.0 mi North 9.2 mph 16.1 mph N/A   Overcast
10:55 AM 55.4 °F - 50.0 °F 82% 30.14 in 10.0 mi North 15.0 mph - N/A   Overcast
11:15 AM 55.4 °F - 51.8 °F 88% 30.14 in 10.0 mi North 10.4 mph - N/A   Overcast
11:35 AM 57.2 °F - 50.0 °F 77% 30.14 in 10.0 mi North 13.8 mph 17.3 mph N/A   Overcast
11:55 AM 57.2 °F - 50.0 °F 77% 30.14 in 10.0 mi North 15.0 mph 19.6 mph N/A   Overcast
12:15 PM 57.2 °F - 48.2 °F 72% 30.14 in 10.0 mi North 13.8 mph 20.7 mph N/A   Overcast
12:35 PM 57.2 °F - 50.0 °F 77% 30.14 in 10.0 mi North 15.0 mph 20.7 mph N/A   Overcast
12:55 PM 57.2 °F - 48.2 °F 72% 30.14 in 10.0 mi North 12.7 mph 20.7 mph N/A   Overcast
1:15 PM 57.2 °F - 48.2 °F 72% 30.13 in 10.0 mi North 17.3 mph 21.9 mph N/A   Overcast
1:35 PM 57.2 °F - 46.4 °F 67% 30.14 in 10.0 mi NNE 11.5 mph 20.7 mph N/A   Overcast
1:55 PM 57.2 °F - 46.4 °F 67% 30.14 in 10.0 mi NNE 13.8 mph 18.4 mph N/A   Overcast
2:15 PM 57.2 °F - 46.4 °F 67% 30.14 in 10.0 mi North 13.8 mph 17.3 mph N/A   Overcast
2:35 PM 55.4 °F - 44.6 °F 67% 30.14 in 10.0 mi NNE 15.0 mph 18.4 mph N/A   Overcast
2:55 PM 55.4 °F - 44.6 °F 67% 30.14 in 10.0 mi North 10.4 mph 19.6 mph N/A   Overcast
3:35 PM 55.4 °F - 44.6 °F 67% 30.14 in 10.0 mi NNE 5.8 mph - N/A   Overcast
3:55 PM 55.4 °F - 44.6 °F 67% 30.15 in 10.0 mi NNE 9.2 mph - N/A   Overcast
4:15 PM 55.4 °F - 44.6 °F 67% 30.15 in 10.0 mi North 10.4 mph - N/A   Overcast
4:35 PM 55.4 °F - 44.6 °F 67% 30.15 in 10.0 mi North 8.1 mph - N/A   Overcast
4:55 PM 55.4 °F - 44.6 °F 67% 30.15 in 10.0 mi North 11.5 mph - N/A   Overcast
5:15 PM 53.6 °F - 44.6 °F 72% 30.15 in 10.0 mi North 8.1 mph - N/A   Overcast
5:35 PM 53.6 °F - 42.8 °F 67% 30.16 in 10.0 mi North 8.1 mph - N/A   Overcast
5:55 PM 53.6 °F - 42.8 °F 67% 30.16 in 10.0 mi North 8.1 mph - N/A   Overcast
6:15 PM 51.8 °F - 42.8 °F 71% 30.16 in 10.0 mi North 10.4 mph - N/A   Overcast
6:35 PM 51.8 °F - 42.8 °F 71% 30.17 in 10.0 mi North 10.4 mph - N/A   Mostly Cloudy
6:55 PM 51.8 °F - 42.8 °F 71% 30.18 in 10.0 mi North 8.1 mph - N/A   Overcast
7:15 PM 51.8 °F - 42.8 °F 71% 30.18 in 10.0 mi North 9.2 mph - N/A   Overcast
7:35 PM 51.8 °F - 42.8 °F 71% 30.19 in 10.0 mi NNE 8.1 mph - N/A   Overcast
7:55 PM 51.8 °F - 42.8 °F 71% 30.18 in 10.0 mi NNE 8.1 mph - N/A   Overcast
8:15 PM 51.8 °F - 42.8 °F 71% 30.19 in 10.0 mi NE 9.2 mph - N/A   Overcast
8:35 PM 51.8 °F - 42.8 °F 71% 30.19 in 10.0 mi NNE 8.1 mph - N/A   Overcast
9:15 PM 51.8 °F - 42.8 °F 71% 30.20 in 10.0 mi NE 8.1 mph - N/A   Overcast
9:35 PM 51.8 °F - 42.8 °F 71% 30.20 in 10.0 mi NE 8.1 mph - N/A   Overcast
9:55 PM 51.8 °F - 42.8 °F 71% 30.20 in 10.0 mi NE 8.1 mph - N/A   Overcast
10:15 PM 51.8 °F - 42.8 °F 71% 30.20 in 10.0 mi NE 8.1 mph - N/A   Overcast
10:35 PM 51.8 °F - 42.8 °F 71% 30.21 in 10.0 mi North 4.6 mph - N/A   Overcast
10:55 PM 51.8 °F - 41.0 °F 67% 30.21 in 10.0 mi NNE 6.9 mph - N/A   Overcast
11:15 PM 48.2 °F - 39.2 °F 71% 30.21 in 10.0 mi NNE 6.9 mph - N/A   Scattered Clouds
11:35 PM 48.2 °F - 39.2 °F 71% 30.20 in 10.0 mi NNE 8.1 mph - N/A   Clear
11:55 PM 46.4 °F 43.5 °F 39.2 °F 76% 30.20 in 10.0 mi NE 5.8 mph - N/A   Clear